Regional Weather Roundup
Issued by NWS

Home | Current Version | Previous Version | Graphics & Text | Print | Product List | Glossary On
Versions: 1 2 3 4 5 6 7 8 9 10 11 12 13 14 15 16 17 18 19 20 21 22 23 24 25 26 27 28 29 30 31 32 33 34 35 36 37 38 39 40 41 42 43 44 45 46 47 48 49 50
000
ASUS43 KFSD 241510
RWRSD

WEATHER ROUNDUP FOR SOUTH DAKOTA
NATIONAL WEATHER SERVICE SIOUX FALLS SD
1000 AM CDT THU APR 24 2014

NOTE: "FAIR" INDICATES FEW OR NO CLOUDS BELOW 12,000 FEET WITH NO
SIGNIFICANT WEATHER AND/OR OBSTRUCTIONS TO VISIBILITY.


SDZ001>005-009-010-012>017-241600-
NORTHWEST AND NORTH CENTRAL SOUTH DAKOTA

CITY           SKY/WX    TMP DP  RH WIND       PRES   REMARKS
BUFFALO          N/A     48  31  51 W26       29.77F
FAITH            N/A     51  28  41 W28G33    29.82S
MOBRIDGE       SUNNY     51  29  42 NW10      29.75S
$$

SDZ012>016-024>037-041>051-057-063-072>074-241600-
SOUTHWEST AND SOUTH CENTRAL SOUTH DAKOTA

CITY           SKY/WX    TMP DP  RH WIND       PRES   REMARKS
RAPID CTY ARPT SUNNY     54  21  27 NW5       29.85F
PIERRE         SUNNY     54  30  40 NW17      29.80R
CUSTER         SUNNY     42  18  37 W9        29.87F
ELLSWORTH AFB  SUNNY     53  22  29 W8        29.85F
PHILIP         SUNNY     58  23  26 NW18      29.83F
PINE RIDGE     SUNNY     48  28  46 W10       29.90S
SPEARFISH      FAIR      48  23  37 NW15      29.88S
WINNER         FAIR      59  26  28 NW23      29.81S
$$

SDZ004>011-016>023-039-040-241600-
NORTHEAST SOUTH DAKOTA

CITY           SKY/WX    TMP DP  RH WIND       PRES   REMARKS
ABERDEEN       CLOUDY    48  41  76 W8        29.75F
WATERTOWN      LGT RAIN  41  40  96 N8        29.73F FOG
SISSETON         N/A     40  40 100 SE3       29.75F
$$

SDZ017-020-022-023-036>040-048>070-241600-
SOUTHEAST SOUTH DAKOTA

CITY           SKY/WX    TMP DP  RH WIND       PRES   REMARKS
SIOUX FALLS    CLOUDY    47  44  90 N16       29.71F
HURON          PTSUNNY   49  41  74 NW10      29.75F
CHAMBERLAIN      N/A     58  30  34 NW17G23   29.79S
MITCHELL       CLOUDY    51  46  83 NW13      29.77S
YANKTON        CLOUDY    52  46  82 NW17      29.74S
$$

ABBREVIATIONS USED IN REMARKS
   TC - TEMPERATURE IN CELSIUS
  WCI - WIND CHILL INDEX
   HX - HEAT INDEX
  VSB - VISIBILITY




USA.gov is the U.S. government's official web portal to all federal, state and local government web resources and services.